Tracking 30703 objects as of 13-Jun-2025
HD Live streaming from Space Station
objects crossing your sky now

STARLINK-32390

Track STARLINK-32390 now!
10-day predictions
STARLINK-32390 is classified as:


NORAD ID: 61630
Int'l Code: 2024-191K
Perigee: 489.5 km
Apogee: 490.9 km
Inclination: 43.0 °
Period: 94.3 minutes
Semi major axis: 6861 km
RCS: Unknown
Launch date: October 23, 2024
Source: United States (US)
Launch site: AIR FORCE EASTERN TEST RANGE (AFETR)
Your satellite tracking list
Your tracking list is empty




NASA's NSSDC Master Catalog

Two Line Element Set (TLE):
1 61630U 24191K   25163.90339367 -.00000227  00000-0  12757-5 0  9999
2 61630  42.9965 238.3252 0001087 271.0033  89.0694 15.27576614 36278
Source of the keplerian elements: AFSPC